Year,Month,Day,Hour,Minute,Value (Times are PST for temperature in C)
2020,10,02,00,00,13.30
2020,10,02,00,01,13.30
2020,10,02,00,02,13.30
2020,10,02,00,03,13.20
2020,10,02,00,04,13.20
2020,10,02,00,05,13.20
2020,10,02,00,06,13.20
2020,10,02,00,07,13.20
2020,10,02,00,08,13.20
2020,10,02,00,09,13.20
2020,10,02,00,10,13.20
2020,10,02,00,11,13.20
2020,10,02,00,12,13.20
2020,10,02,00,13,13.20
2020,10,02,00,14,13.10
2020,10,02,00,15,13.10
2020,10,02,00,16,13.10
2020,10,02,00,17,13.10
2020,10,02,00,18,13.10
2020,10,02,00,19,13.10
2020,10,02,00,20,13.10
2020,10,02,00,21,13.10
2020,10,02,00,22,13.10
2020,10,02,00,23,13.10
2020,10,02,00,24,13.10
2020,10,02,00,25,13.10
2020,10,02,00,26,13.10
2020,10,02,00,27,13.10
2020,10,02,00,28,13.10
2020,10,02,00,29,13.10
2020,10,02,00,30,13.10
2020,10,02,00,31,13.10
2020,10,02,00,32,13.10
2020,10,02,00,33,13.10
2020,10,02,00,34,13.10
2020,10,02,00,35,13.10
2020,10,02,00,36,13.10
2020,10,02,00,37,13.10
2020,10,02,00,38,13.00
2020,10,02,00,39,13.00
2020,10,02,00,40,13.00
2020,10,02,00,41,13.00
2020,10,02,00,42,13.00
2020,10,02,00,43,12.90
2020,10,02,00,44,13.00
2020,10,02,00,45,12.90
2020,10,02,00,46,12.90
2020,10,02,00,47,12.90
2020,10,02,00,48,12.90
2020,10,02,00,49,12.90
2020,10,02,00,50,12.90
2020,10,02,00,51,12.90
2020,10,02,00,52,12.90
2020,10,02,00,53,12.90
2020,10,02,00,54,12.90
2020,10,02,00,55,12.90
2020,10,02,00,56,12.90
2020,10,02,00,57,12.90
2020,10,02,00,58,12.90
2020,10,02,00,59,12.90
2020,10,02,01,00,12.90
2020,10,02,01,01,12.90
2020,10,02,01,02,12.90
2020,10,02,01,03,12.80
2020,10,02,01,04,12.80
2020,10,02,01,05,12.80
2020,10,02,01,06,12.80
2020,10,02,01,07,12.80
2020,10,02,01,08,12.80
2020,10,02,01,09,12.80
2020,10,02,01,10,12.80
2020,10,02,01,11,12.80
2020,10,02,01,12,12.70
2020,10,02,01,13,12.70
2020,10,02,01,14,12.70
2020,10,02,01,15,12.70
2020,10,02,01,16,12.70
2020,10,02,01,17,12.70
2020,10,02,01,18,12.70
2020,10,02,01,19,12.70
2020,10,02,01,20,12.70
2020,10,02,01,21,12.70
2020,10,02,01,22,12.70
2020,10,02,01,23,12.70
2020,10,02,01,24,12.70
2020,10,02,01,25,12.70
2020,10,02,01,26,12.70
2020,10,02,01,27,12.70
2020,10,02,01,28,12.60
2020,10,02,01,29,12.60
2020,10,02,01,30,12.60
2020,10,02,01,31,12.60
2020,10,02,01,32,12.60
2020,10,02,01,33,12.60
2020,10,02,01,34,12.60
2020,10,02,01,35,12.50
2020,10,02,01,36,12.50
2020,10,02,01,37,12.50
2020,10,02,01,38,12.50
2020,10,02,01,39,12.40
2020,10,02,01,40,12.40
2020,10,02,01,41,12.40
2020,10,02,01,42,12.40
2020,10,02,01,43,12.40
2020,10,02,01,44,12.40
2020,10,02,01,45,12.40
2020,10,02,01,46,12.40
2020,10,02,01,47,12.40
2020,10,02,01,48,12.40
2020,10,02,01,49,12.40
2020,10,02,01,50,12.40
2020,10,02,01,51,12.40
2020,10,02,01,52,12.40
2020,10,02,01,53,12.40
2020,10,02,01,54,12.30
2020,10,02,01,55,12.30
2020,10,02,01,56,12.30
2020,10,02,01,57,12.30
2020,10,02,01,58,12.30
2020,10,02,01,59,12.20
2020,10,02,02,00,12.30
2020,10,02,02,01,12.30
2020,10,02,02,02,12.30
2020,10,02,02,03,12.30
2020,10,02,02,04,12.20
2020,10,02,02,05,12.20
2020,10,02,02,06,12.20
2020,10,02,02,07,12.20
2020,10,02,02,08,12.20
2020,10,02,02,09,12.20
2020,10,02,02,10,12.20
2020,10,02,02,11,12.10
2020,10,02,02,12,12.10
2020,10,02,02,13,12.20
2020,10,02,02,14,12.10
2020,10,02,02,15,12.10
2020,10,02,02,16,12.10
2020,10,02,02,17,12.10
2020,10,02,02,18,12.20
2020,10,02,02,19,12.20
2020,10,02,02,20,12.20
2020,10,02,02,21,12.20
2020,10,02,02,22,12.20
2020,10,02,02,23,12.20
2020,10,02,02,24,12.20
2020,10,02,02,25,12.20
2020,10,02,02,26,12.20
2020,10,02,02,27,12.20
2020,10,02,02,28,12.10
2020,10,02,02,29,12.10
2020,10,02,02,30,12.10
2020,10,02,02,31,12.10
2020,10,02,02,32,12.10
2020,10,02,02,33,12.10
2020,10,02,02,34,12.10
2020,10,02,02,35,12.10
2020,10,02,02,36,12.10
2020,10,02,02,37,12.10
2020,10,02,02,38,12.10
2020,10,02,02,39,12.10
2020,10,02,02,40,12.10
2020,10,02,02,41,12.10
2020,10,02,02,42,12.00
2020,10,02,02,43,12.00
2020,10,02,02,44,12.00
2020,10,02,02,45,12.00
2020,10,02,02,46,11.90
2020,10,02,02,47,11.90
2020,10,02,02,48,11.90
2020,10,02,02,49,11.90
2020,10,02,02,50,11.90
2020,10,02,02,51,11.90
2020,10,02,02,52,11.90
2020,10,02,02,53,11.90
2020,10,02,02,54,11.90
2020,10,02,02,55,11.90
2020,10,02,02,56,11.80
2020,10,02,02,57,11.90
2020,10,02,02,58,11.90
2020,10,02,02,59,11.90
2020,10,02,03,00,11.90
2020,10,02,03,01,12.00
2020,10,02,03,02,11.90
2020,10,02,03,03,12.00
2020,10,02,03,04,11.90
2020,10,02,03,05,11.90
2020,10,02,03,06,11.90
2020,10,02,03,07,11.90
2020,10,02,03,08,11.90
2020,10,02,03,09,11.90
2020,10,02,03,10,11.90
2020,10,02,03,11,11.90
2020,10,02,03,12,11.90
2020,10,02,03,13,11.90
2020,10,02,03,14,11.90
2020,10,02,03,15,11.90
2020,10,02,03,16,11.90
2020,10,02,03,17,11.90
2020,10,02,03,18,11.80
2020,10,02,03,19,11.80
2020,10,02,03,20,11.80
2020,10,02,03,21,11.80
2020,10,02,03,22,11.80
2020,10,02,03,23,11.70
2020,10,02,03,24,11.70
2020,10,02,03,25,11.70
2020,10,02,03,26,11.70
2020,10,02,03,27,11.70
2020,10,02,03,28,11.60
2020,10,02,03,29,11.70
2020,10,02,03,30,11.60
2020,10,02,03,31,11.60
2020,10,02,03,32,11.60
2020,10,02,03,33,11.60
2020,10,02,03,34,11.70
2020,10,02,03,35,11.60
2020,10,02,03,36,11.60
2020,10,02,03,37,11.60
2020,10,02,03,38,11.60
2020,10,02,03,39,11.60
2020,10,02,03,40,11.60
2020,10,02,03,41,11.60
2020,10,02,03,42,11.60
2020,10,02,03,43,11.60
2020,10,02,03,44,11.60
2020,10,02,03,45,11.60
2020,10,02,03,46,11.60
2020,10,02,03,47,11.60
2020,10,02,03,48,11.50
2020,10,02,03,49,11.50
2020,10,02,03,50,11.50
2020,10,02,03,51,11.50
2020,10,02,03,52,11.40
2020,10,02,03,53,11.40
2020,10,02,03,54,11.40
2020,10,02,03,55,11.40
2020,10,02,03,56,11.40
2020,10,02,03,57,11.40
2020,10,02,03,58,11.40
2020,10,02,03,59,11.40
2020,10,02,04,00,11.40
2020,10,02,04,01,11.40
2020,10,02,04,02,11.30
2020,10,02,04,03,11.30
2020,10,02,04,04,11.30
2020,10,02,04,05,11.30
2020,10,02,04,06,11.30
2020,10,02,04,07,11.30
2020,10,02,04,08,11.30
2020,10,02,04,09,11.30
2020,10,02,04,10,11.20
2020,10,02,04,11,11.20
2020,10,02,04,12,11.20
2020,10,02,04,13,11.20
2020,10,02,04,14,11.20
2020,10,02,04,15,11.20
2020,10,02,04,16,11.10
2020,10,02,04,17,11.10
2020,10,02,04,18,11.10
2020,10,02,04,19,11.10
2020,10,02,04,20,11.10
2020,10,02,04,21,11.10
2020,10,02,04,22,11.10
2020,10,02,04,23,11.10
2020,10,02,04,24,11.10
2020,10,02,04,25,11.10
2020,10,02,04,26,11.10
2020,10,02,04,27,11.10
2020,10,02,04,28,11.10
2020,10,02,04,29,11.20
2020,10,02,04,30,11.20
2020,10,02,04,31,11.20
2020,10,02,04,32,11.20
2020,10,02,04,33,11.20
2020,10,02,04,34,11.20
2020,10,02,04,35,11.20
2020,10,02,04,36,11.20
2020,10,02,04,37,11.20
2020,10,02,04,38,11.20
2020,10,02,04,39,11.20
2020,10,02,04,40,11.20
2020,10,02,04,41,11.20
2020,10,02,04,42,11.10
2020,10,02,04,43,11.10
2020,10,02,04,44,11.10
2020,10,02,04,45,11.10
2020,10,02,04,46,11.10
2020,10,02,04,47,11.10
2020,10,02,04,48,11.10
2020,10,02,04,49,11.10
2020,10,02,04,50,11.10
2020,10,02,04,51,11.00
2020,10,02,04,52,11.00
2020,10,02,04,53,11.00
2020,10,02,04,54,11.00
2020,10,02,04,55,11.00
2020,10,02,04,56,11.00
2020,10,02,04,57,11.00
2020,10,02,04,58,11.00
2020,10,02,04,59,11.00
2020,10,02,05,00,11.00
2020,10,02,05,01,11.00
2020,10,02,05,02,11.00
2020,10,02,05,03,11.00
2020,10,02,05,04,11.00
2020,10,02,05,05,11.00
2020,10,02,05,06,11.10
2020,10,02,05,07,11.10
2020,10,02,05,08,11.10
2020,10,02,05,09,11.10
2020,10,02,05,10,11.10
2020,10,02,05,11,11.10
2020,10,02,05,12,11.10
2020,10,02,05,13,11.00
2020,10,02,05,14,11.00
2020,10,02,05,15,11.00
2020,10,02,05,16,11.00
2020,10,02,05,17,11.00
2020,10,02,05,18,10.90
2020,10,02,05,19,10.90
2020,10,02,05,20,10.90
2020,10,02,05,21,10.80
2020,10,02,05,22,10.80
2020,10,02,05,23,10.80
2020,10,02,05,24,10.80
2020,10,02,05,25,10.80
2020,10,02,05,26,10.80
2020,10,02,05,27,10.70
2020,10,02,05,28,10.70
2020,10,02,05,29,10.70
2020,10,02,05,30,10.70
2020,10,02,05,31,10.70
2020,10,02,05,32,10.70
2020,10,02,05,33,10.70
2020,10,02,05,34,10.70
2020,10,02,05,35,10.70
2020,10,02,05,36,10.70
2020,10,02,05,37,10.70
2020,10,02,05,38,10.80
2020,10,02,05,39,10.80
2020,10,02,05,40,10.80
2020,10,02,05,41,10.80
2020,10,02,05,42,10.80
2020,10,02,05,43,10.80
2020,10,02,05,44,10.80
2020,10,02,05,45,10.80
2020,10,02,05,46,10.80
2020,10,02,05,47,10.80
2020,10,02,05,48,10.80
2020,10,02,05,49,10.80
2020,10,02,05,50,10.80
2020,10,02,05,51,10.80
2020,10,02,05,52,10.80
2020,10,02,05,53,10.80
2020,10,02,05,54,10.80
2020,10,02,05,55,10.80
2020,10,02,05,56,10.80
2020,10,02,05,57,10.80
2020,10,02,05,58,10.80
2020,10,02,05,59,10.80
2020,10,02,06,00,10.80
2020,10,02,06,01,10.80
2020,10,02,06,02,10.80
2020,10,02,06,03,10.80
2020,10,02,06,04,10.80
2020,10,02,06,05,10.80
2020,10,02,06,06,10.80
2020,10,02,06,07,10.80
2020,10,02,06,08,10.80
2020,10,02,06,09,10.70
2020,10,02,06,10,10.70
2020,10,02,06,11,10.70
2020,10,02,06,12,10.70
2020,10,02,06,13,10.70
2020,10,02,06,14,10.70
2020,10,02,06,15,10.70
2020,10,02,06,16,10.60
2020,10,02,06,17,10.70
2020,10,02,06,18,10.70
2020,10,02,06,19,10.70
2020,10,02,06,20,10.70
2020,10,02,06,21,10.70
2020,10,02,06,22,10.70
2020,10,02,06,23,10.70
2020,10,02,06,24,10.70
2020,10,02,06,25,10.70
2020,10,02,06,26,10.60
2020,10,02,06,27,10.60
2020,10,02,06,28,10.60
2020,10,02,06,29,10.60
2020,10,02,06,30,10.60
2020,10,02,06,31,10.60
2020,10,02,06,32,10.60
2020,10,02,06,33,10.60
2020,10,02,06,34,10.60
2020,10,02,06,35,10.60
2020,10,02,06,36,10.60
2020,10,02,06,37,10.60
2020,10,02,06,38,10.60
2020,10,02,06,39,10.60
2020,10,02,06,40,10.60
2020,10,02,06,41,10.60
2020,10,02,06,42,10.60
2020,10,02,06,43,10.60
2020,10,02,06,44,10.60
2020,10,02,06,45,10.60
2020,10,02,06,46,10.50
2020,10,02,06,47,10.60
2020,10,02,06,48,10.60
2020,10,02,06,49,10.50
2020,10,02,06,50,10.50
2020,10,02,06,51,10.50
2020,10,02,06,52,10.60
2020,10,02,06,53,10.60
2020,10,02,06,54,10.60
2020,10,02,06,55,10.60
2020,10,02,06,56,10.70
2020,10,02,06,57,10.70
2020,10,02,06,58,10.70
2020,10,02,06,59,10.70
2020,10,02,07,00,10.70
2020,10,02,07,01,10.60
2020,10,02,07,02,10.60
2020,10,02,07,03,10.60
2020,10,02,07,04,10.60
2020,10,02,07,05,10.60
2020,10,02,07,06,10.50
2020,10,02,07,07,10.50
2020,10,02,07,08,10.50
2020,10,02,07,09,10.50
2020,10,02,07,10,10.40
2020,10,02,07,11,10.40
2020,10,02,07,12,10.40
2020,10,02,07,13,10.40
2020,10,02,07,14,10.40
2020,10,02,07,15,10.30
2020,10,02,07,16,10.30
2020,10,02,07,17,10.30
2020,10,02,07,18,10.30
2020,10,02,07,19,10.30
2020,10,02,07,20,10.30
2020,10,02,07,21,10.30
2020,10,02,07,22,10.30
2020,10,02,07,23,10.30
2020,10,02,07,24,10.30
2020,10,02,07,25,10.30
2020,10,02,07,26,10.30
2020,10,02,07,27,10.30
2020,10,02,07,28,10.30
2020,10,02,07,29,10.30
2020,10,02,07,30,10.30
2020,10,02,07,31,10.30
2020,10,02,07,32,10.30
2020,10,02,07,33,10.30
2020,10,02,07,34,10.20
2020,10,02,07,35,10.20
2020,10,02,07,36,10.20
2020,10,02,07,37,10.20
2020,10,02,07,38,10.20
2020,10,02,07,39,10.20
2020,10,02,07,40,10.20
2020,10,02,07,41,10.20
2020,10,02,07,42,10.20
2020,10,02,07,43,10.20
2020,10,02,07,44,10.20
2020,10,02,07,45,10.20
2020,10,02,07,46,10.20
2020,10,02,07,47,10.20
2020,10,02,07,48,10.20
2020,10,02,07,49,10.20
2020,10,02,07,50,10.20
2020,10,02,07,51,10.10
2020,10,02,07,52,10.10
2020,10,02,07,53,10.10
2020,10,02,07,54,10.10
2020,10,02,07,55,10.10
2020,10,02,07,56,10.10
2020,10,02,07,57,10.10
2020,10,02,07,58,10.10
2020,10,02,07,59,10.10
2020,10,02,08,00,10.10
2020,10,02,08,01,10.10
2020,10,02,08,02,10.10
2020,10,02,08,03,10.10
2020,10,02,08,04,10.10
2020,10,02,08,05,10.10
2020,10,02,08,06,10.10
2020,10,02,08,07,10.10
2020,10,02,08,08,10.10
2020,10,02,08,09,10.10
2020,10,02,08,10,10.20
2020,10,02,08,11,10.20
2020,10,02,08,12,10.20
2020,10,02,08,13,10.20
2020,10,02,08,14,10.30
2020,10,02,08,15,10.30
2020,10,02,08,16,10.30
2020,10,02,08,17,10.30
2020,10,02,08,18,10.30
2020,10,02,08,19,10.30
2020,10,02,08,20,10.30
2020,10,02,08,21,10.30
2020,10,02,08,22,10.40
2020,10,02,08,23,10.40
2020,10,02,08,24,10.40
2020,10,02,08,25,10.40
2020,10,02,08,26,10.50
2020,10,02,08,27,10.50
2020,10,02,08,28,10.50
2020,10,02,08,29,10.60
2020,10,02,08,30,10.60
2020,10,02,08,31,10.70
2020,10,02,08,32,10.70
2020,10,02,08,33,10.70
2020,10,02,08,34,10.70
2020,10,02,08,35,10.80
2020,10,02,08,36,10.80
2020,10,02,08,37,10.80
2020,10,02,08,38,10.90
2020,10,02,08,39,10.90
2020,10,02,08,40,11.00
2020,10,02,08,41,11.00
2020,10,02,08,42,11.10
2020,10,02,08,43,11.10
2020,10,02,08,44,11.10
2020,10,02,08,45,11.10
2020,10,02,08,46,11.10
2020,10,02,08,47,11.20
2020,10,02,08,48,11.20
2020,10,02,08,49,11.20
2020,10,02,08,50,11.20
2020,10,02,08,51,11.30
2020,10,02,08,52,11.30
2020,10,02,08,53,11.40
2020,10,02,08,54,11.40
2020,10,02,08,55,11.40
2020,10,02,08,56,11.50
2020,10,02,08,57,11.50
2020,10,02,08,58,11.50
2020,10,02,08,59,11.60
2020,10,02,09,00,11.70
2020,10,02,09,01,11.70
2020,10,02,09,02,11.70
2020,10,02,09,03,11.80
2020,10,02,09,04,11.80
2020,10,02,09,05,11.90
2020,10,02,09,06,11.90
2020,10,02,09,07,12.00
2020,10,02,09,08,12.10
2020,10,02,09,09,12.10
2020,10,02,09,10,12.20
2020,10,02,09,11,12.30
2020,10,02,09,12,12.30
2020,10,02,09,13,12.40
2020,10,02,09,14,12.40
2020,10,02,09,15,12.50
2020,10,02,09,16,12.60
2020,10,02,09,17,12.70
2020,10,02,09,18,12.70
2020,10,02,09,19,12.80
2020,10,02,09,20,12.90
2020,10,02,09,21,12.90
2020,10,02,09,22,13.00
2020,10,02,09,23,13.00
2020,10,02,09,24,13.00
2020,10,02,09,25,13.10
2020,10,02,09,26,13.10
2020,10,02,09,27,13.10
2020,10,02,09,28,13.20
2020,10,02,09,29,13.20
2020,10,02,09,30,13.30
2020,10,02,09,31,13.30
2020,10,02,09,32,13.40
2020,10,02,09,33,13.40
2020,10,02,09,34,13.60
2020,10,02,09,35,13.60
2020,10,02,09,36,13.70
2020,10,02,09,37,13.80
2020,10,02,09,38,13.90
2020,10,02,09,39,13.90
2020,10,02,09,40,14.00
2020,10,02,09,41,14.10
2020,10,02,09,42,14.10
2020,10,02,09,43,14.20
2020,10,02,09,44,14.30
2020,10,02,09,45,14.40
2020,10,02,09,46,14.50
2020,10,02,09,47,14.60
2020,10,02,09,48,14.70
2020,10,02,09,49,14.70
2020,10,02,09,50,14.70
2020,10,02,09,51,14.80
2020,10,02,09,52,14.80
2020,10,02,09,53,14.90
2020,10,02,09,54,14.90
2020,10,02,09,55,14.90
2020,10,02,09,56,14.90
2020,10,02,09,57,15.00
2020,10,02,09,58,15.00
2020,10,02,09,59,15.10
2020,10,02,10,00,15.10
2020,10,02,10,01,15.10
2020,10,02,10,02,15.10
2020,10,02,10,03,15.20
2020,10,02,10,04,15.20
2020,10,02,10,05,15.20
2020,10,02,10,06,15.30
2020,10,02,10,07,15.40
2020,10,02,10,08,15.40
2020,10,02,10,09,15.50
2020,10,02,10,10,15.60
2020,10,02,10,11,15.60
2020,10,02,10,12,15.70
2020,10,02,10,13,15.70
2020,10,02,10,14,15.80
2020,10,02,10,15,15.80
2020,10,02,10,16,15.80
2020,10,02,10,17,15.90
2020,10,02,10,18,15.90
2020,10,02,10,19,15.90
2020,10,02,10,20,16.00
2020,10,02,10,21,16.00
2020,10,02,10,22,16.00
2020,10,02,10,23,16.00
2020,10,02,10,24,16.00
2020,10,02,10,25,16.00
2020,10,02,10,26,16.10
2020,10,02,10,27,16.10
2020,10,02,10,28,16.10
2020,10,02,10,29,16.20
2020,10,02,10,30,16.20
2020,10,02,10,31,16.10
2020,10,02,10,32,16.10
2020,10,02,10,33,16.10
2020,10,02,10,34,16.00
2020,10,02,10,35,16.00
2020,10,02,10,36,15.90
2020,10,02,10,37,16.00
2020,10,02,10,38,16.00
2020,10,02,10,39,16.00
2020,10,02,10,40,16.10
2020,10,02,10,41,16.10
2020,10,02,10,42,16.20
2020,10,02,10,43,16.20
2020,10,02,10,44,16.30
2020,10,02,10,45,16.30
2020,10,02,10,46,16.30
2020,10,02,10,47,16.30
2020,10,02,10,48,16.30
2020,10,02,10,49,16.40
2020,10,02,10,50,16.40
2020,10,02,10,51,16.40
2020,10,02,10,52,16.40
2020,10,02,10,53,16.50
2020,10,02,10,54,16.40
2020,10,02,10,55,16.40
2020,10,02,10,56,16.40
2020,10,02,10,57,16.40
2020,10,02,10,58,16.40
2020,10,02,10,59,16.50
2020,10,02,11,00,16.50
2020,10,02,11,01,16.50
2020,10,02,11,02,16.50
2020,10,02,11,03,16.50
2020,10,02,11,04,16.50
2020,10,02,11,05,16.50
2020,10,02,11,06,16.50
2020,10,02,11,07,16.60
2020,10,02,11,08,16.50
2020,10,02,11,09,16.50
2020,10,02,11,10,16.60
2020,10,02,11,11,16.60
2020,10,02,11,12,16.70
2020,10,02,11,13,16.70
2020,10,02,11,14,16.70
2020,10,02,11,15,16.70
2020,10,02,11,16,16.70
2020,10,02,11,17,16.80
2020,10,02,11,18,16.70
2020,10,02,11,19,16.70
2020,10,02,11,20,16.70
2020,10,02,11,21,16.70
2020,10,02,11,22,16.70
2020,10,02,11,23,16.60
2020,10,02,11,24,16.60
2020,10,02,11,25,16.50
2020,10,02,11,26,16.50
2020,10,02,11,27,16.50
2020,10,02,11,28,16.40
2020,10,02,11,29,16.40
2020,10,02,11,30,16.40
2020,10,02,11,31,16.50
2020,10,02,11,32,16.50
2020,10,02,11,33,16.50
2020,10,02,11,34,16.60
2020,10,02,11,35,16.60
2020,10,02,11,36,16.60
2020,10,02,11,37,16.60
2020,10,02,11,38,16.70
2020,10,02,11,39,16.70
2020,10,02,11,40,16.70
2020,10,02,11,41,16.70
2020,10,02,11,42,16.70
2020,10,02,11,43,16.70
2020,10,02,11,44,16.80
2020,10,02,11,45,16.80
2020,10,02,11,46,16.90
2020,10,02,11,47,16.90
2020,10,02,11,48,17.00
2020,10,02,11,49,17.00
2020,10,02,11,50,17.10
2020,10,02,11,51,17.10
2020,10,02,11,52,17.10
2020,10,02,11,53,17.20
2020,10,02,11,54,17.20
2020,10,02,11,55,17.30
2020,10,02,11,56,17.30
2020,10,02,11,57,17.40
2020,10,02,11,58,17.40
2020,10,02,11,59,17.50
2020,10,02,12,00,17.50
2020,10,02,12,01,17.50
2020,10,02,12,02,17.60
2020,10,02,12,03,17.60
2020,10,02,12,04,17.60
2020,10,02,12,05,17.60
2020,10,02,12,06,17.60
2020,10,02,12,07,17.60
2020,10,02,12,08,17.70
2020,10,02,12,09,17.60
2020,10,02,12,10,17.70
2020,10,02,12,11,17.70
2020,10,02,12,12,17.80
2020,10,02,12,13,17.80
2020,10,02,12,14,17.80
2020,10,02,12,15,17.80
2020,10,02,12,16,17.80
2020,10,02,12,17,17.80
2020,10,02,12,18,17.80
2020,10,02,12,19,17.80
2020,10,02,12,20,17.80
2020,10,02,12,21,17.80
2020,10,02,12,22,17.80
2020,10,02,12,23,17.80
2020,10,02,12,24,17.80
2020,10,02,12,25,17.70
2020,10,02,12,26,17.70
2020,10,02,12,27,17.70
2020,10,02,12,28,17.70
2020,10,02,12,29,17.70
2020,10,02,12,30,17.70
2020,10,02,12,31,17.70
2020,10,02,12,32,17.70
2020,10,02,12,33,17.70
2020,10,02,12,34,17.80
2020,10,02,12,35,17.80
2020,10,02,12,36,17.80
2020,10,02,12,37,17.90
2020,10,02,12,38,17.90
2020,10,02,12,39,17.80
2020,10,02,12,40,17.80
2020,10,02,12,41,17.80
2020,10,02,12,42,17.80
2020,10,02,12,43,17.80
2020,10,02,12,44,17.80
2020,10,02,12,45,17.80
2020,10,02,12,46,17.90
2020,10,02,12,47,18.00
2020,10,02,12,48,18.00
2020,10,02,12,49,18.10
2020,10,02,12,50,18.10
2020,10,02,12,51,18.10
2020,10,02,12,52,18.20
2020,10,02,12,53,18.20
2020,10,02,12,54,18.20
2020,10,02,12,55,18.20
2020,10,02,12,56,18.20
2020,10,02,12,57,18.20
2020,10,02,12,58,18.20
2020,10,02,12,59,18.20
2020,10,02,13,00,18.20
2020,10,02,13,01,18.20
2020,10,02,13,02,18.30
2020,10,02,13,03,18.20
2020,10,02,13,04,18.20
2020,10,02,13,05,18.20
2020,10,02,13,06,18.20
2020,10,02,13,07,18.30
2020,10,02,13,08,18.40
2020,10,02,13,09,18.40
2020,10,02,13,10,18.50
2020,10,02,13,11,18.60
2020,10,02,13,12,18.60
2020,10,02,13,13,18.70
2020,10,02,13,14,18.60
2020,10,02,13,15,18.70
2020,10,02,13,16,18.70
2020,10,02,13,17,18.70
2020,10,02,13,18,18.60
2020,10,02,13,19,18.50
2020,10,02,13,20,18.40
2020,10,02,13,21,18.40
2020,10,02,13,22,18.40
2020,10,02,13,23,18.30
2020,10,02,13,24,18.30
2020,10,02,13,25,18.30
2020,10,02,13,26,18.30
2020,10,02,13,27,18.20
2020,10,02,13,28,18.20
2020,10,02,13,29,18.20
2020,10,02,13,30,18.20
2020,10,02,13,31,18.20
2020,10,02,13,32,18.20
2020,10,02,13,33,18.10
2020,10,02,13,34,18.10
2020,10,02,13,35,18.10
2020,10,02,13,36,18.20
2020,10,02,13,37,18.20
2020,10,02,13,38,18.20
2020,10,02,13,39,18.20
2020,10,02,13,40,18.20
2020,10,02,13,41,18.20
2020,10,02,13,42,18.30
2020,10,02,13,43,18.30
2020,10,02,13,44,18.30
2020,10,02,13,45,18.30
2020,10,02,13,46,18.30
2020,10,02,13,47,18.30
2020,10,02,13,48,18.30
2020,10,02,13,49,18.40
2020,10,02,13,50,18.40
2020,10,02,13,51,18.40
2020,10,02,13,52,18.30
2020,10,02,13,53,18.40
2020,10,02,13,54,18.40
2020,10,02,13,55,18.40
2020,10,02,13,56,18.40
2020,10,02,13,57,18.40
2020,10,02,13,58,18.40
2020,10,02,13,59,18.30
2020,10,02,14,00,18.30
2020,10,02,14,01,18.30
2020,10,02,14,02,18.30
2020,10,02,14,03,18.30
2020,10,02,14,04,18.30
2020,10,02,14,05,18.30
2020,10,02,14,06,18.40
2020,10,02,14,07,18.40
2020,10,02,14,08,18.40
2020,10,02,14,09,18.40
2020,10,02,14,10,18.40
2020,10,02,14,11,18.40
2020,10,02,14,12,18.50
2020,10,02,14,13,18.50
2020,10,02,14,14,18.60
2020,10,02,14,15,18.60
2020,10,02,14,16,18.60
2020,10,02,14,17,18.60
2020,10,02,14,18,18.70
2020,10,02,14,19,18.70
2020,10,02,14,20,18.80
2020,10,02,14,21,18.70
2020,10,02,14,22,18.70
2020,10,02,14,23,18.70
2020,10,02,14,24,18.70
2020,10,02,14,25,18.70
2020,10,02,14,26,18.80
2020,10,02,14,27,18.80
2020,10,02,14,28,18.80
2020,10,02,14,29,18.80
2020,10,02,14,30,18.90
2020,10,02,14,31,18.90
2020,10,02,14,32,18.90
2020,10,02,14,33,19.00
2020,10,02,14,34,19.00
2020,10,02,14,35,19.10
2020,10,02,14,36,19.20
2020,10,02,14,37,19.20
2020,10,02,14,38,19.30
2020,10,02,14,39,19.30
2020,10,02,14,40,19.40
2020,10,02,14,41,19.40
2020,10,02,14,42,19.40
2020,10,02,14,43,19.30
2020,10,02,14,44,19.30
2020,10,02,14,45,19.30
2020,10,02,14,46,19.30
2020,10,02,14,47,19.30
2020,10,02,14,48,19.30
2020,10,02,14,49,19.30
2020,10,02,14,50,19.20
2020,10,02,14,51,19.20
2020,10,02,14,52,19.20
2020,10,02,14,53,19.20
2020,10,02,14,54,19.20
2020,10,02,14,55,19.20
2020,10,02,14,56,19.20
2020,10,02,14,57,19.20
2020,10,02,14,58,19.20
2020,10,02,14,59,19.20
2020,10,02,15,00,19.30
2020,10,02,15,01,19.30
2020,10,02,15,02,19.30
2020,10,02,15,03,19.30
2020,10,02,15,04,19.40
2020,10,02,15,05,19.40
2020,10,02,15,06,19.50
2020,10,02,15,07,19.60
2020,10,02,15,08,19.70
2020,10,02,15,09,19.80
2020,10,02,15,10,19.90
2020,10,02,15,11,19.90
2020,10,02,15,12,20.00
2020,10,02,15,13,20.00
2020,10,02,15,14,20.10
2020,10,02,15,15,20.00
2020,10,02,15,16,20.00
2020,10,02,15,17,20.10
2020,10,02,15,18,20.10
2020,10,02,15,19,20.10
2020,10,02,15,20,20.00
2020,10,02,15,21,20.00
2020,10,02,15,22,20.00
2020,10,02,15,23,19.90
2020,10,02,15,24,19.80
2020,10,02,15,25,19.80
2020,10,02,15,26,19.80
2020,10,02,15,27,19.80
2020,10,02,15,28,19.70
2020,10,02,15,29,19.70
2020,10,02,15,30,19.70
2020,10,02,15,31,19.60
2020,10,02,15,32,19.60
2020,10,02,15,33,19.50
2020,10,02,15,34,19.50
2020,10,02,15,35,19.40
2020,10,02,15,36,19.40
2020,10,02,15,37,19.40
2020,10,02,15,38,19.40
2020,10,02,15,39,19.30
2020,10,02,15,40,19.30
2020,10,02,15,41,19.30
2020,10,02,15,42,19.30
2020,10,02,15,43,19.30
2020,10,02,15,44,19.30
2020,10,02,15,45,19.30
2020,10,02,15,46,19.30
2020,10,02,15,47,19.30
2020,10,02,15,48,19.30
2020,10,02,15,49,19.30
2020,10,02,15,50,19.30
2020,10,02,15,51,19.30
2020,10,02,15,52,19.40
2020,10,02,15,53,19.40
2020,10,02,15,54,19.40
2020,10,02,15,55,19.40
2020,10,02,15,56,19.40
2020,10,02,15,57,19.40
2020,10,02,15,58,19.50
2020,10,02,15,59,19.50
2020,10,02,16,00,19.60
2020,10,02,16,01,19.60
2020,10,02,16,02,19.60
2020,10,02,16,03,19.60
2020,10,02,16,04,19.70
2020,10,02,16,05,19.70
2020,10,02,16,06,19.70
2020,10,02,16,07,19.70
2020,10,02,16,08,19.80
2020,10,02,16,09,19.80
2020,10,02,16,10,19.90
2020,10,02,16,11,20.00
2020,10,02,16,12,20.10
2020,10,02,16,13,20.10
2020,10,02,16,14,20.20
2020,10,02,16,15,20.30
2020,10,02,16,16,20.30
2020,10,02,16,17,20.40
2020,10,02,16,18,20.40
2020,10,02,16,19,20.40
2020,10,02,16,20,20.40
2020,10,02,16,21,20.40
2020,10,02,16,22,20.40
2020,10,02,16,23,20.30
2020,10,02,16,24,20.30
2020,10,02,16,25,20.30
2020,10,02,16,26,20.30
2020,10,02,16,27,20.30
2020,10,02,16,28,20.30
2020,10,02,16,29,20.30
2020,10,02,16,30,20.30
2020,10,02,16,31,20.30
2020,10,02,16,32,20.40
2020,10,02,16,33,20.30
2020,10,02,16,34,20.30
2020,10,02,16,35,20.30
2020,10,02,16,36,20.30
2020,10,02,16,37,20.30
2020,10,02,16,38,20.30
2020,10,02,16,39,20.30
2020,10,02,16,40,20.30
2020,10,02,16,41,20.30
2020,10,02,16,42,20.30
2020,10,02,16,43,20.30
2020,10,02,16,44,20.30
2020,10,02,16,45,20.30
2020,10,02,16,46,20.40
2020,10,02,16,47,20.40
2020,10,02,16,48,20.40
2020,10,02,16,49,20.40
2020,10,02,16,50,20.40
2020,10,02,16,51,20.30
2020,10,02,16,52,20.30
2020,10,02,16,53,20.30
2020,10,02,16,54,20.30
2020,10,02,16,55,20.30
2020,10,02,16,56,20.30
2020,10,02,16,57,20.30
2020,10,02,16,58,20.30
2020,10,02,16,59,20.20
2020,10,02,17,00,20.20
2020,10,02,17,01,20.20
2020,10,02,17,02,20.20
2020,10,02,17,03,20.20
2020,10,02,17,04,20.20
2020,10,02,17,05,20.20
2020,10,02,17,06,20.10
2020,10,02,17,07,20.10
2020,10,02,17,08,20.10
2020,10,02,17,09,20.10
2020,10,02,17,10,20.10
2020,10,02,17,11,20.00
2020,10,02,17,12,20.00
2020,10,02,17,13,19.90
2020,10,02,17,14,19.90
2020,10,02,17,15,19.90
2020,10,02,17,16,19.90
2020,10,02,17,17,19.90
2020,10,02,17,18,19.80
2020,10,02,17,19,19.80